Wind_Speed
11 10 7 2 0 1 2 3 4 1 5 10 24 8 9 6 2 3 25 35 31 27 25 23 19 15 13 12 12 11 9 8 9 10 9 8 7 8 8 8 7 7 8 8 9 11 12 12 13
12 9 2 2 2 0 3 2 5 2 10 24 12 15 5 3 3 15 39 34 31 27 25 22 18 14 11 10 10 10 9 8 9 9 10 9 8 8 10 9 10 9 9 10 10 11 12 12 14
11 5 0 2 1 2 2 2 3 4 28 12 6 10 4 4 6 41 37 35 30 27 24 21 18 13 11 12 11 10 8 8 9 9 9 8 9 9 10 9 10 10 11 11 11 12 13 12 13
7 2 1 0 3 4 3 3 5 10 7 7 13 8 6 1 37 29 38 33 29 26 23 20 16 13 12 10 9 8 7 8 9 9 8 8 9 9 9 10 10 10 11 12 12 11 11 12 11
5 2 1 2 4 1 4 2 6 3 4 8 3 5 9 17 17 35 36 31 27 26 22 18 15 14 11 10 10 9 9 9 9 9 9 9 9 9 9 9 9 9 10 12 14 13 12 11 12
1 1 1 1 2 1 6 4 3 4 5 10 11 9 6 10 29 36 35 29 25 24 20 17 15 13 11 10 10 10 10 9 9 8 9 9 9 9 9 10 10 10 12 14 15 14 11 13 16
1 1 1 3 4 3 4 9 2 5 7 6 14 5 14 18 35 35 32 27 23 21 19 17 15 13 13 12 11 11 10 10 8 7 8 9 9 9 10 10 9 9 11 15 16 14 13 16 15
3 0 2 1 4 1 6 5 6 8 5 13 14 6 13 30 36 34 29 26 23 21 19 16 17 16 14 13 12 12 11 11 9 8 9 10 11 9 10 11 9 10 14 17 15 15 14 13 12
3 1 1 1 2 4 2 2 6 9 8 3 4 18 27 41 36 33 29 26 22 20 19 18 17 16 15 15 15 14 13 11 10 11 12 11 11 11 11 12 10 12 16 17 15 14 12 12 12
2 1 2 1 5 5 9 9 5 7 9 7 19 28 37 38 36 34 31 29 25 21 20 18 18 17 16 16 16 16 15 14 12 12 13 14 13 12 13 13 11 13 15 14 14 11 11 9 7
3 3 2 5 11 13 9 5 7 4 3 7 28 35 39 38 35 34 31 28 25 22 20 18 18 17 17 17 19 17 16 14 13 13 14 14 13 13 12 13 13 12 13 13 12 11 8 5 8
2 8 9 5 10 9 8 16 9 8 7 8 33 40 40 38 37 34 31 28 25 24 21 20 19 18 18 19 20 17 16 13 12 13 15 13 12 13 13 13 15 13 11 11 10 8 6 3 4
4 8 12 15 11 9 14 10 5 11 10 21 30 35 37 36 34 30 27 25 24 23 22 21 20 19 19 20 19 16 14 12 13 14 15 14 14 13 14 16 14 11 10 8 6 6 4 2 5
4 10 17 13 6 14 10 8 8 10 16 28 30 32 35 36 34 30 26 25 24 23 23 22 22 21 20 21 18 15 13 12 14 13 11 12 10 9 10 11 9 8 9 9 8 6 3 5 7
5 3 4 8 7 5 19 6 4 18 20 28 31 29 33 33 32 30 25 24 25 24 24 22 23 23 23 20 15 13 13 12 10 10 8 7 4 4 7 12 10 8 10 9 9 5 4 5 8
3 3 3 3 4 8 3 3 7 16 21 26 31 29 32 31 31 30 27 23 25 25 25 24 24 24 24 20 15 12 10 9 8 8 7 6 6 5 6 9 9 9 11 8 5 4 6 5 8
5 3 2 3 3 5 1 1 3 14 21 25 28 32 31 31 30 31 29 26 27 27 26 24 26 26 22 19 15 11 10 8 6 5 7 8 6 6 6 6 7 11 10 7 6 6 4 5 4
3 4 2 2 5 1 6 4 4 12 7 16 23 27 31 32 31 31 33 28 29 31 29 26 26 24 21 18 15 13 11 11 10 7 6 7 7 6 9 7 7 9 9 7 5 6 3 3 2
3 4 0 2 3 3 3 4 8 14 11 13 21 27 30 33 33 31 33 32 31 32 31 29 28 25 23 21 18 15 13 12 11 9 6 7 7 7 9 8 7 7 7 8 4 9 6 4 3
2 5 2 3 0 4 2 2 3 11 7 8 18 22 28 31 33 29 30 33 36 35 33 30 29 27 25 22 20 17 14 14 11 9 7 7 8 8 6 8 6 7 5 8 4 8 7 7 3
1 5 3 3 4 3 4 3 3 7 6 10 9 20 24 31 35 37 31 33 38 39 36 34 31 29 25 22 23 21 17 15 14 13 10 7 7 8 9 9 8 7 8 10 7 7 6 3 5
1 7 5 2 2 1 2 3 3 7 8 11 18 19 26 28 32 39 37 35 36 40 38 37 35 32 26 25 24 24 22 18 16 11 10 9 8 8 7 10 11 8 10 10 10 8 6 3 5
6 6 6 4 3 3 3 4 4 3 7 12 24 27 26 34 33 34 38 38 34 34 42 40 38 36 30 29 28 26 23 18 14 12 11 10 9 10 7 8 12 10 7 12 10 8 10 8 9
5 5 8 5 3 2 2 4 5 3 4 4 18 26 31 33 35 34 36 36 35 34 40 43 40 37 35 31 29 30 27 23 20 16 14 13 11 11 11 11 10 11 10 9 10 13 11 10 11
5 6 2 3 2 5 5 4 2 7 10 10 16 26 32 32 35 34 38 39 40 38 42 44 42 40 36 34 29 30 31 27 22 20 19 16 14 11 11 12 11 10 9 11 10 10 12 11 9
4 7 5 5 5 4 2 6 1 5 14 21 29 16 26 30 39 42 33 38 42 40 39 44 45 42 39 36 30 25 32 30 27 23 21 18 15 12 10 9 10 9 8 9 9 9 12 12 11
3 4 3 7 2 4 1 6 4 20 19 29 29 26 11 24 33 40 44 37 41 44 40 41 47 45 43 36 33 27 28 31 29 27 24 20 18 15 15 14 11 12 11 8 9 11 11 12 14
7 1 3 4 4 3 3 4 4 16 17 19 24 27 25 16 28 37 41 44 41 43 44 41 42 46 45 41 35 31 27 30 30 28 28 25 20 19 17 17 17 13 13 13 10 10 12 14 14
6 5 6 5 3 5 4 2 5 8 12 14 23 32 33 20 20 31 34 38 37 39 42 43 43 44 49 46 41 35 32 30 31 33 30 27 24 21 19 19 17 17 15 13 13 10 11 13 13
4 3 3 4 3 2 3 3 7 7 15 20 24 29 35 22 1 20 25 29 35 35 38 40 41 43 44 47 45 42 36 31 33 34 33 31 29 26 21 20 18 17 18 18 17 16 14 13 14
Wind_Direction
142 140 147 183 358 275 225 256 300 80 134 153 145 157 157 105 157 191 148 159 162 154 153 153 150 145 144 143 143 147 136 129 127 121 118 113 104 108 110 117 138 127 131 128 125 120 114 112 112
148 139 160 287 276 356 281 241 263 296 138 141 112 116 87 99 121 141 148 155 161 155 154 153 149 147 145 154 159 155 143 138 128 129 124 112 111 103 114 103 117 130 130 127 131 128 124 121 116
143 144 270 302 305 320 286 253 325 101 131 131 103 94 85 107 143 145 150 154 158 157 157 154 152 151 146 146 149 150 146 139 136 133 127 119 114 102 116 109 109 117 134 132 134 132 129 126 122
156 181 234 4 281 191 247 9 179 113 101 90 110 77 74 210 140 148 151 156 157 157 158 158 159 160 152 147 149 153 150 143 139 134 128 120 111 111 107 109 111 113 125 141 139 136 129 120 121
164 247 221 219 239 284 225 54 43 68 56 115 86 92 100 132 151 150 152 157 160 156 157 158 161 159 158 158 161 162 154 143 137 130 130 119 114 114 107 106 116 122 126 134 139 128 126 117 102
230 266 272 8 346 244 85 4 110 74 91 116 104 104 108 151 156 152 153 155 159 156 156 158 155 154 149 149 151 150 145 138 133 133 131 128 124 119 118 112 109 113 122 135 134 131 115 108 108
262 234 356 353 349 60 13 351 66 93 127 103 133 104 135 152 157 153 154 155 158 158 156 157 153 152 148 148 147 142 141 129 130 136 135 132 133 122 112 111 112 117 122 131 136 130 111 121 110
245 95 145 301 17 25 347 359 88 36 57 137 150 153 159 160 159 155 157 158 161 161 160 158 152 152 147 147 144 140 137 135 138 143 141 137 133 126 119 116 117 122 129 132 130 122 119 116 109
255 359 69 128 164 120 153 79 42 14 141 74 227 164 161 157 158 158 160 161 164 165 164 162 158 154 152 147 143 140 134 131 132 135 134 140 135 130 126 112 112 125 133 131 126 123 121 112 96
265 165 246 67 121 118 102 82 56 17 305 58 99 138 153 159 160 162 164 164 168 168 167 166 161 158 152 150 144 140 130 126 124 129 137 133 134 132 127 119 119 126 131 128 123 113 110 100 88
211 229 276 133 135 137 130 131 124 125 268 171 145 148 159 162 165 167 169 168 167 165 168 165 163 160 156 149 145 141 128 124 119 124 126 130 131 132 125 119 119 131 132 129 119 112 106 87 94
248 245 253 195 165 141 164 136 149 163 209 192 168 162 164 168 170 171 172 172 166 167 166 164 164 162 154 152 150 143 137 131 124 120 124 126 126 123 123 125 122 128 136 134 124 117 114 100 100
224 268 271 256 244 147 137 141 146 178 142 156 156 164 169 171 171 173 172 172 170 168 165 166 164 164 157 157 156 153 151 145 137 127 120 124 129 119 122 124 125 130 146 149 147 137 136 72 97
225 244 274 293 203 153 136 148 134 172 142 157 162 169 174 175 176 177 178 178 178 172 168 167 166 164 162 157 159 156 148 145 155 145 135 137 143 151 146 140 144 140 153 161 155 140 125 103 118
272 300 17 63 106 131 120 132 207 161 160 165 168 172 178 184 184 186 182 182 178 177 170 169 170 168 169 164 161 156 153 150 159 164 163 175 174 163 174 165 159 158 162 168 166 175 135 104 110
18 49 45 197 136 166 34 151 171 164 167 169 171 170 184 193 193 193 191 186 183 177 176 170 175 172 170 172 168 159 160 159 169 184 187 158 160 144 149 168 159 159 167 169 171 195 179 129 106
5 138 58 120 180 148 183 195 260 168 169 168 175 178 180 193 198 197 195 188 182 173 171 172 178 177 173 173 179 188 188 188 186 187 199 187 188 193 190 193 183 168 159 164 185 177 161 129 100
174 95 18 66 184 128 178 246 123 182 194 176 179 179 185 193 200 197 200 194 186 181 177 176 178 178 179 184 192 200 201 199 202 199 196 199 208 210 207 193 184 177 181 168 171 189 193 169 113
131 103 50 246 256 229 255 200 187 185 197 184 188 187 188 197 202 204 207 203 196 191 188 186 185 186 188 192 190 193 190 190 192 197 196 209 209 213 208 200 190 184 187 184 183 175 175 190 135
165 113 260 294 81 133 40 21 187 166 199 180 188 196 194 193 203 207 206 205 204 200 198 197 195 193 194 197 198 200 199 196 194 195 185 188 203 208 191 199 211 209 194 185 170 180 202 205 192
147 138 197 228 16 49 107 33 160 169 174 233 222 216 202 197 201 206 205 208 209 208 205 204 204 201 201 201 204 204 202 200 196 204 203 193 200 205 211 211 208 221 205 198 187 199 218 233 179
210 195 175 238 72 281 114 292 270 194 200 222 248 224 209 205 203 209 211 215 217 213 210 210 208 207 205 206 209 213 211 205 210 206 210 215 203 209 205 209 222 222 218 205 214 212 203 212 195
211 163 168 187 150 71 330 67 252 156 221 216 226 230 220 211 208 210 214 216 221 219 213 213 211 211 207 208 213 217 215 213 211 210 211 214 212 215 211 211 210 217 225 209 208 217 223 230 231
115 84 41 48 82 51 221 125 314 314 300 312 226 224 221 215 212 213 216 218 221 224 216 214 210 212 212 212 219 221 220 217 216 216 214 219 226 225 219 215 210 213 223 220 227 228 234 229 239
92 83 31 45 61 198 305 74 216 308 350 309 270 223 218 216 210 207 212 214 218 220 217 218 212 213 214 216 221 224 222 222 223 224 219 220 233 237 225 222 223 226 232 229 234 234 221 220 224
155 156 150 158 171 190 344 158 89 355 347 358 16 257 224 210 214 210 209 213 217 218 220 222 218 217 216 218 222 226 222 225 227 228 220 221 224 231 235 236 233 223 225 227 230 228 218 223 231
170 73 184 108 19 88 255 339 308 351 359 2 4 15 255 219 219 221 215 216 221 221 221 224 223 223 220 222 223 226 225 227 226 220 219 218 221 229 241 248 250 241 241 234 235 234 232 239 236
94 92 74 14 129 146 30 73 327 343 341 339 348 349 338 312 232 224 224 218 224 228 225 226 229 228 228 224 228 226 230 227 224 220 219 221 223 227 234 245 253 254 247 245 246 243 248 249 246
8 20 39 108 94 151 127 263 19 332 337 338 342 343 341 331 236 229 227 221 221 225 227 228 229 231 230 229 229 230 230 229 227 226 224 225 225 228 239 243 248 250 246 249 256 258 259 254 249
52 60 102 121 204 62 120 215 44 1 349 357 354 0 15 26 300 227 230 225 220 226 227 232 233 234 235 235 233 232 232 234 230 229 231 229 230 230 235 236 244 243 241 248 258 260 266 270 262
Height
1509 1511 1513 1513 1518 1513 1515 1511 1502 1502 1504 1505 1510 1513 1517 1517 1520 1533 1526 1534 1540 1544 1548 1551 1555 1558 1559 1561 1562 1564 1565 1566 1566 1567 1567 1567 1567 1567 1567 1568 1568 1570 1570 1571 1572 1573 1574 1575 1576
1510 1512 1514 1512 1513 1515 1511 1504 1505 1501 1502 1506 1511 1514 1517 1522 1521 1523 1528 1536 1542 1546 1550 1553 1556 1559 1561 1563 1564 1566 1567 1567 1568 1569 1570 1570 1569 1569 1569 1569 1570 1571 1572 1574 1574 1575 1577 1577 1578
1512 1513 1514 1512 1512 1518 1514 1505 1504 1502 1503 1508 1512 1516 1518 1521 1521 1525 1531 1537 1543 1548 1551 1555 1558 1561 1563 1565 1566 1567 1568 1568 1569 1570 1571 1571 1571 1572 1571 1571 1572 1573 1575 1576 1577 1578 1578 1580 1581
1511 1514 1516 1515 1518 1507 1504 1501 1502 1505 1508 1509 1512 1518 1522 1523 1524 1528 1534 1540 1545 1549 1553 1557 1560 1562 1564 1566 1567 1568 1569 1570 1571 1572 1573 1573 1574 1574 1574 1574 1575 1575 1577 1578 1579 1580 1582 1583 1585
1511 1512 1513 1514 1510 1505 1502 1504 1506 1508 1510 1512 1513 1521 1525 1527 1528 1531 1536 1543 1547 1551 1555 1558 1560 1563 1565 1567 1568 1569 1571 1572 1572 1573 1574 1576 1576 1577 1577 1577 1577 1578 1579 1580 1582 1584 1585 1587 1587
1511 1511 1514 1514 1509 1504 1504 1507 1507 1509 1512 1515 1516 1520 1528 1530 1532 1535 1539 1545 1550 1553 1556 1559 1562 1564 1566 1568 1570 1571 1573 1574 1574 1575 1576 1577 1579 1579 1580 1580 1580 1581 1581 1582 1584 1586 1587 1590 1590
1511 1510 1513 1513 1508 1507 1509 1507 1507 1511 1514 1516 1518 1522 1529 1531 1535 1538 1543 1547 1552 1555 1558 1560 1563 1565 1568 1569 1571 1573 1574 1576 1577 1577 1578 1579 1580 1581 1582 1583 1583 1584 1584 1585 1586 1589 1590 1591 1593
1510 1510 1512 1512 1510 1511 1510 1508 1509 1511 1515 1517 1519 1523 1528 1529 1535 1540 1545 1549 1553 1557 1559 1562 1564 1566 1569 1570 1573 1574 1575 1577 1578 1579 1580 1581 1582 1584 1584 1585 1585 1585 1586 1588 1590 1591 1593 1594 1595
1510 1514 1512 1508 1507 1512 1511 1506 1498 1516 1516 1516 1518 1518 1524 1529 1536 1541 1546 1551 1555 1558 1561 1563 1565 1567 1570 1572 1574 1576 1578 1579 1579 1580 1581 1582 1585 1585 1587 1587 1588 1588 1590 1592 1594 1595 1595 1597 1598
1510 1512 1509 1503 1506 1507 1510 1509 1509 1515 1517 1519 1520 1521 1527 1532 1537 1541 1545 1549 1554 1558 1561 1564 1566 1569 1571 1574 1576 1578 1580 1581 1582 1582 1583 1585 1587 1588 1589 1590 1591 1592 1593 1595 1596 1598 1599 1600 1601
1509 1511 1503 1504 1504 1507 1508 1509 1510 1515 1517 1518 1521 1524 1529 1534 1538 1543 1546 1549 1553 1558 1561 1564 1568 1570 1573 1575 1577 1580 1582 1583 1585 1586 1587 1588 1590 1591 1593 1593 1594 1595 1597 1598 1600 1601 1602 1603 1603
1509 1503 1504 1504 1505 1506 1509 1511 1515 1514 1516 1518 1523 1523 1529 1534 1538 1542 1546 1550 1553 1558 1562 1565 1569 1571 1574 1577 1579 1581 1583 1586 1587 1589 1590 1591 1592 1594 1595 1596 1597 1599 1600 1602 1603 1604 1605 1605 1606
1507 1503 1501 1500 1504 1505 1507 1511 1514 1517 1516 1519 1526 1529 1533 1537 1541 1545 1548 1552 1555 1559 1562 1566 1569 1573 1575 1578 1581 1582 1584 1587 1590 1591 1592 1594 1596 1597 1598 1599 1600 1602 1603 1605 1606 1607 1607 1607 1607
1503 1502 1499 1498 1500 1504 1507 1512 1513 1519 1518 1523 1527 1529 1534 1538 1541 1545 1549 1552 1555 1559 1563 1567 1570 1574 1577 1579 1582 1584 1586 1588 1591 1593 1594 1596 1598 1600 1601 1602 1603 1604 1605 1606 1608 1609 1609 1609 1609
1500 1502 1499 1501 1502 1505 1508 1517 1514 1516 1518 1524 1528 1530 1535 1539 1542 1545 1548 1551 1555 1559 1563 1567 1571 1574 1578 1580 1583 1585 1587 1590 1592 1594 1596 1598 1599 1600 1602 1603 1605 1606 1607 1608 1610 1611 1611 1611 1611
1502 1503 1511 1505 1504 1506 1509 1518 1512 1515 1518 1520 1524 1529 1533 1539 1541 1545 1549 1552 1556 1560 1563 1567 1571 1575 1578 1581 1584 1586 1589 1591 1593 1595 1596 1598 1600 1602 1603 1604 1606 1607 1609 1611 1611 1612 1613 1613 1613
1510 1516 1509 1507 1502 1505 1512 1516 1509 1513 1514 1518 1522 1527 1532 1536 1540 1544 1548 1552 1556 1559 1563 1566 1570 1574 1578 1582 1584 1587 1590 1593 1594 1595 1596 1599 1601 1603 1604 1606 1607 1608 1611 1612 1612 1613 1614 1615 1615
1515 1516 1511 1509 1507 1505 1511 1515 1511 1514 1514 1515 1523 1528 1532 1535 1539 1542 1547 1552 1556 1559 1562 1566 1570 1574 1578 1581 1584 1586 1589 1592 1594 1596 1597 1599 1601 1603 1605 1606 1607 1609 1612 1614 1614 1614 1615 1616 1617
1505 1512 1513 1507 1502 1505 1510 1512 1511 1514 1516 1519 1521 1525 1531 1534 1540 1543 1545 1550 1555 1559 1562 1565 1569 1573 1576 1579 1582 1585 1588 1591 1593 1595 1597 1600 1601 1603 1605 1606 1608 1610 1612 1614 1615 1615 1616 1617 1618
1505 1513 1514 1505 1503 1506 1510 1513 1509 1513 1515 1518 1522 1525 1529 1534 1537 1541 1543 1547 1551 1556 1560 1564 1568 1571 1574 1578 1581 1585 1588 1591 1593 1595 1597 1599 1601 1603 1604 1606 1608 1610 1612 1614 1616 1617 1618 1618 1619
1506 1515 1513 1511 1506 1507 1510 1516 1512 1514 1517 1519 1522 1524 1528 1531 1534 1539 1542 1544 1548 1552 1557 1561 1565 1569 1572 1576 1580 1583 1587 1590 1592 1594 1596 1598 1600 1603 1604 1606 1608 1610 1612 1614 1616 1618 1618 1619 1619
1512 1503 1504 1507 1515 1525 1509 1535 1518 1513 1517 1519 1519 1520 1524 1527 1531 1536 1539 1542 1544 1550 1554 1558 1563 1567 1570 1574 1577 1581 1584 1587 1590 1593 1596 1598 1600 1602 1603 1605 1607 1609 1611 1613 1615 1617 1618 1619 1620
1505 1499 1504 1506 1514 1518 1517 1529 1517 1514 1519 1515 1511 1513 1517 1520 1525 1528 1533 1538 1542 1546 1550 1555 1560 1565 1569 1572 1575 1579 1583 1587 1590 1592 1595 1597 1599 1601 1603 1605 1606 1609 1611 1613 1615 1616 1618 1619 1620
1493 1503 1514 1520 1527 1541 1518 1525 1524 1520 1515 1508 1507 1508 1509 1513 1518 1523 1528 1535 1539 1542 1547 1551 1556 1561 1566 1570 1573 1576 1580 1584 1587 1590 1593 1595 1598 1599 1602 1603 1606 1607 1610 1612 1613 1615 1616 1618 1619
1496 1513 1543 1544 1547 1545 1528 1526 1534 1517 1509 1508 1501 1499 1503 1509 1514 1517 1521 1527 1533 1537 1542 1547 1553 1557 1562 1567 1570 1573 1576 1580 1584 1588 1591 1593 1596 1598 1600 1602 1604 1606 1608 1609 1611 1613 1615 1617 1619
1498 1506 1533 1539 1554 1539 1524 1531 1529 1516 1511 1504 1495 1494 1498 1503 1506 1513 1519 1523 1528 1533 1538 1543 1548 1553 1558 1563 1567 1570 1574 1577 1580 1584 1588 1591 1593 1596 1599 1600 1602 1605 1606 1608 1609 1611 1613 1616 1617
1499 1516 1511 1533 1539 1537 1534 1525 1516 1510 1505 1501 1500 1499 1501 1501 1505 1508 1514 1518 1523 1528 1533 1539 1544 1549 1554 1559 1564 1567 1571 1574 1576 1579 1584 1588 1591 1594 1596 1598 1601 1602 1605 1607 1608 1610 1612 1613 1615
1501 1508 1520 1527 1538 1536 1541 1542 1545 1527 1520 1512 1505 1504 1501 1498 1499 1502 1507 1512 1517 1523 1529 1534 1540 1545 1550 1555 1559 1563 1567 1570 1574 1577 1580 1584 1588 1590 1593 1595 1598 1601 1603 1605 1606 1607 1609 1610 1612
1516 1522 1526 1531 1540 1543 1556 1552 1535 1535 1527 1521 1513 1505 1498 1491 1492 1497 1503 1509 1514 1519 1524 1529 1535 1540 1545 1550 1555 1559 1563 1566 1570 1573 1575 1579 1584 1587 1590 1592 1595 1597 1600 1602 1604 1605 1606 1607 1609
1521 1527 1533 1533 1537 1551 1548 1552 1535 1533 1528 1524 1518 1510 1499 1492 1494 1498 1503 1507 1513 1516 1520 1524 1529 1535 1539 1544 1549 1553 1558 1562 1565 1568 1571 1574 1578 1582 1585 1588 1590 1593 1596 1598 1600 1602 1603 1604 1605